Regional Weather Roundup
Issued by NWS

Home | Current Version | Previous Version | Graphics & Text | Print | Product List | Glossary On
Versions: 1 2 3 4 5 6 7 8 9 10 11 12 13 14 15 16 17 18 19 20 21 22 23 24 25 26 27 28 29 30 31 32 33 34 35 36 37 38 39 40 41 42 43 44 45 46 47 48 49 50
000
ASUS43 KTOP 280708
RWRKS

WEATHER ROUNDUP FOR KANSAS
NATIONAL WEATHER SERVICE GOODLAND KS
200 AM CDT TUE JUL 28 2015

NOTE:  "FAIR" INDICATES FEW OR NO CLOUDS BELOW 12,000 FEET WITH NO
SIGNIFICANT WEATHER AND/OR OBSTRUCTIONS TO VISIBILITY.

KSZ001>006-013>018-027>032-041>047-280800-
NORTHWEST KANSAS

CITY           SKY/WX    TMP DP  RH WIND       PRES   REMARKS
GOODLAND       CLEAR     77  64  64 S16       29.82R
HAYS           CLEAR     81  66  61 S21G26    29.81S
HILL CITY      CLEAR     81  69  67 S15G23    29.79R
RUSSELL        CLEAR     81  69  67 S18G28    29.81R
$$

KSZ061>065-074>080-084>089-280800-
SOUTHWEST KANSAS

CITY           SKY/WX    TMP DP  RH WIND       PRES   REMARKS
DODGE CITY     CLEAR     78  66  66 S15       29.88S
ELKHART          N/A     78  59  52 S13         N/A
GARDEN CITY    CLEAR     79  66  64 S21G29    29.87R
GREAT BEND     CLEAR     82  64  54 S21G26    29.83F
LIBERAL        CLEAR     82  63  51 S18G25    29.89F
PRATT          CLEAR     79  63  57 S20       29.89S
$$

KSZ066>073-081>083-090>101-280800-
SOUTHEAST KANSAS

CITY           SKY/WX    TMP DP  RH WIND       PRES   REMARKS
CHANUTE        CLEAR     80  75  84 S7        29.91S
COFFEYVILLE    CLEAR     80  77  90 SE6       29.89F
HUTCHINSON     CLEAR     83  67  58 S14       29.86F
MEDICINE LODGE   N/A     80  66  62 S7        29.87S
NEWTON         CLEAR     81  66  61 S14       29.90F
PARSONS        CLEAR     81  77  88 SE5       29.91F
WICHITA INTL   CLEAR     82  69  64 S15       29.87F
WICHITA JABRA  CLEAR     81  71  71 S13       29.87F
WICHITA MCCONL CLEAR     81  71  70 S15       29.88F
WINFIELD       CLEAR     81  72  74 S13       29.89F
$$

KSZ007>012-019>026-033>040-048>060-102>105-280800-
NORTHEAST KANSAS

CITY           SKY/WX    TMP DP  RH WIND       PRES   REMARKS
CONCORDIA      CLEAR     81  69  67 S17G29    29.80F
EMPORIA        CLEAR     78  73  84 S13       29.88S
LAWRENCE       CLEAR     80  73  79 S12       29.87F
MANHATTAN      CLEAR     81  73  76 S9        29.84S
MARYSVILLE     CLEAR     79  72  78 S12       29.83F
OLATHE IND     CLEAR     79  74  84 S9        29.90F
OLATHE EXE     CLEAR     78  73  84 S7        29.89F
SALINA         CLEAR     83  68  60 S15G24    29.82S
TOPEKA BILLARD CLEAR     82  73  74 S8        29.86F
TOPEKA FORBES  CLEAR     81  72  74 S8        29.87F
$$


USA.gov is the U.S. government's official web portal to all federal, state and local government web resources and services.